CDT,Max TemperatureF,Mean TemperatureF,Min TemperatureF,Max Dew PointF,MeanDew PointF,Min DewpointF,Max Humidity, Mean Humidity, Min Humidity, Max Sea Level PressureIn, Mean Sea Level PressureIn, Min Sea Level PressureIn, Max VisibilityMiles, Mean VisibilityMiles, Min VisibilityMiles, Max Wind SpeedMPH, Mean Wind SpeedMPH, Max Gust SpeedMPH,PrecipitationIn, CloudCover, Events, WindDirDegrees
2012-9-1,91,83,75,77,75,72,94,79,64,30.14,30.10,30.06,10,7,0,16,4,18,1.98,5,Rain-Thunderstorm,197
2012-9-2,91,84,76,79,76,70,100,80,59,30.10,30.04,29.98,10,8,0,21,5,25,0.01,2,Fog-Thunderstorm,211
2012-9-3,92,85,77,76,74,72,94,73,52,30.04,29.99,29.94,10,10,10,13,7,23,0.00,1,,224
2012-9-4,93,85,76,75,74,72,94,73,52,29.99,29.95,29.89,10,10,9,14,7,18,0.00,1,,247
2012-9-5,93,86,78,76,74,71,91,72,52,29.94,29.89,29.84,10,10,10,16,7,21,0.00,1,,264
2012-9-6,95,87,78,79,75,72,91,70,49,29.96,29.90,29.85,10,10,9,14,4,18,0.00,1,,290
2012-9-7,94,86,77,78,74,72,91,70,49,29.93,29.88,29.81,10,10,8,12,3,14,0.00,2,,270
2012-9-8,90,81,71,76,72,67,91,75,59,29.99,29.89,29.83,10,10,8,21,9,24,0.00,3,,358
2012-9-9,83,73,62,64,58,54,90,64,37,30.07,30.03,29.98,10,10,10,15,6,20,0.00,0,,24
2012-9-10,85,73,61,66,60,57,90,65,40,30.12,30.07,30.04,10,10,10,13,3,17,0.00,0,,58
2012-9-11,87,75,63,69,64,60,93,67,40,30.14,30.08,30.04,10,10,8,10,3,15,0.00,1,,86
2012-9-12,88,80,71,74,70,68,93,79,65,30.13,30.08,30.04,10,10,3,17,3,21,0.12,3,Rain-Thunderstorm,176
2012-9-13,90,81,71,73,70,68,93,73,52,30.14,30.10,30.06,10,9,2,14,2,24,0.15,2,Rain,98
2012-9-14,90,80,69,73,70,65,100,72,44,30.16,30.12,30.06,10,7,0,10,3,16,0.00,2,Fog,50
2012-9-15,89,79,69,72,68,63,93,68,43,30.13,30.08,30.03,10,10,8,9,2,15,0.00,0,,59
2012-9-16,91,81,70,73,69,66,90,70,50,30.04,29.98,29.91,10,10,6,9,1,12,0.00,1,,160
2012-9-17,83,78,72,72,71,68,93,81,69,29.91,29.80,29.71,10,8,2,13,3,18,0.93,5,Rain,356
2012-9-18,85,78,70,70,67,63,93,71,48,30.03,29.89,29.80,10,10,10,16,9,20,0.00,5,,330
2012-9-19,80,71,61,65,56,51,87,62,36,30.11,30.07,30.03,10,10,10,13,6,16,0.00,0,,37
2012-9-20,83,70,57,66,59,54,93,70,46,30.10,30.05,29.99,10,10,10,8,2,10,0.00,0,,47
2012-9-21,88,76,63,72,65,61,93,68,43,30.04,30.00,29.95,10,9,4,8,1,12,0.00,0,,75
2012-9-22,89,79,68,73,69,65,97,72,46,30.11,30.06,30.01,10,8,4,7,1,10,0.00,0,,26
2012-9-23,91,80,69,74,69,66,97,71,44,30.17,30.13,30.09,10,7,1,8,2,10,0.00,0,,38
2012-9-24,91,81,70,73,70,66,93,70,47,30.17,30.12,30.05,10,6,1,8,1,10,0.00,0,,140
2012-9-25,89,80,70,72,70,67,100,77,53,30.11,30.07,30.02,10,6,2,13,2,16,0.00,1,,165
2012-9-26,88,77,66,70,67,64,93,70,46,30.11,30.06,30.02,10,10,6,9,1,14,0.00,1,,155
2012-9-27,88,78,68,72,69,66,100,76,51,30.13,30.09,30.01,10,7,0,10,2,15,0.00,2,Fog,59
2012-9-28,87,80,72,75,72,70,100,81,61,30.06,30.01,29.96,10,8,1,15,3,20,1.21,5,Rain,85
2012-9-29,78,75,72,74,72,71,94,90,85,29.98,29.91,29.81,10,9,2,17,1,23,0.72,7,Rain,119
2012-9-30,83,73,62,75,71,61,93,84,74,29.83,29.66,29.52,10,7,1,20,9,30,0.81,7,Rain,218